TIME,DELAY(SENSOR),PRES,OXYGEN,RAWTEMP,T(OPTODE),TCPHASE,FLUOR,BETA(BETA700),BETA(BETA412),BETA(BETA440),CDOM,C(CSC),ED(ED412.40),ED(ED444.00),ED(ED489.70),ED(ED554.30),LU(LU411.80),LU(LU443.40),LU(LU489.60),LU(LU554.10),COMP,TILTX,TILTY,CHECK
1356752909,5808,893.8200073242188000,47.4351196289062500,668.1687011718750000,4.3586730957031250,54.0071601867675800,52,99,89,79,80,15158,2147757421,2147425572,2148010624,2147874898,2147646299,2147056557,2148257124,2147200292,2676,4,13,59046
1356756505,5808,980.9799804687500000,49.5488395690918000,674.2086791992188000,4.1590671539306640,53.7831611633300800,53,100,89,79,81,15157,2147759195,2147423213,2148009801,2147873746,2147641810,2147056557,2148266020,2147198619,3574,4,14,555
1356760105,5809,984.1099853515625000,49.5106010437011700,674.7487182617188000,4.1412029266357420,53.7981910705566400,53,99,88,79,81,15159,2147756342,2147422619,2148009206,2147875766,2147644406,2147058093,2148259245,2147196141,3527,4,13,49915
1356763705,5810,983.4400024414062000,49.8520507812500000,676.7376708984375000,4.0753669738769530,53.7782402038574200,53,100,87,79,81,15158,2147757622,2147423734,2148009526,2147875044,2147647030,2147053851,2148261933,2147194989,672,4,13,7024
1356767305,5809,993.5200195312500000,50.1108818054199200,677.6925048828125000,4.0437488555908200,53.7536697387695300,52,99,84,80,82,15158,2147755830,2147422646,2148009645,2147872201,2147646272,2147055195,2148262043,2147196425,189,4,13,38062
1356770905,5808,990.6699829101562000,50.3167304992675800,678.6995849609375000,4.0103840827941895,53.7393302917480500,53,98,87,79,81,15158,2147757174,2147425554,2148011401,2147870966,2147646518,2147057481,2148264036,2147192877,3547,4,13,13692
1356774505,5807,988.1799926757812000,50.7056198120117200,679.5507812500000000,3.9821801185607910,53.6910514831543000,52,101,87,80,81,15158,2147756635,2147426669,2148010112,2147876187,2147645348,2147053046,2148259364,2147195510,3399,4,13,1390
1356778105,5806,988.9500122070312000,50.7705192565918000,680.1787109375000000,3.9613649845123290,53.6951293945312500,53,98,86,80,80,15160,2147755538,2147423744,2148011035,2147875081,2147644964,2147055844,2148262912,2147199021,3593,4,13,11187
1356781705,5807,998.5100097656250000,50.7163696289062500,679.8071289062500000,3.9736840724945070,53.6938896179199200,52,99,89,78,81,15159,2147759012,2147424996,2148007478,2147876013,2147643757,2147061568,2148267355,2147197366,3468,4,13,10666
1356785305,5808,1001.3200073242188000,50.6402587890625000,679.1807250976562000,3.9944460391998290,53.7012710571289060,52,99,86,80,81,15157,2147756105,2147426569,2148009170,2147875721,2147643821,2147053686,2148264914,2147195629,201,4,13,23870
1356788905,5807,1007.0100097656250000,49.7504501342773440,677.7166748046875000,4.0429477691650390,53.8027801513671900,53,98,90,78,81,15155,2147757101,2147426980,2148010075,2147873819,2147641965,2147053101,2148263808,2147198656,638,4,13,9943
1356792505,5811,1001.2000122070312000,49.5208511352539060,678.3967285156250000,4.0204219818115230,53.8410186767578100,52,101,86,79,80,15155,2147755748,2147424091,2148007716,2147873993,2147642816,2147054838,2148259593,2147199387,201,4,13,15756
1356796105,5807,1010.5499877929688000,49.5695495605468750,677.6362304687500000,4.0456137657165530,53.8282203674316400,53,103,87,80,82,15156,2147756589,2147426816,2148006582,2147874633,2147644854,2147059648,2148268653,2147196050,277,4,13,1130
1356799705,5810,1008.0300292968750000,48.7230491638183600,676.0355224609375000,4.0986161231994630,53.9205017089843750,53,98,83,79,80,15155,2147755702,2147422829,2148008365,2147873709,2147643300,2147053184,2148261147,2147196662,3085,4,13,60160
1356803305,5812,1005.7500000000000000,48.7788009643554700,676.7000732421875000,4.0766139030456540,53.9271392822265600,53,97,87,79,81,15153,2147760841,2147425051,2148008018,2147874733,2147643099,2147056100,2148256694,2147197760,3577,4,13,6491
1356806905,5811,1007.7299804687500000,48.6749305725097660,675.8895263671875000,4.1034488677978520,53.9282417297363300,52,101,88,78,81,15156,2147755602,2147421760,2148009106,2147873069,2147646473,2147057718,2148261906,2147194624,3030,4,13,45180
1356810505,5808,1008.3800048828125000,48.6077499389648440,675.7067871093750000,4.1094927787780760,53.9361305236816400,51,105,88,79,81,15157,2147756425,2147423917,2148010496,2147874752,2147647204,2147056118,2148259748,2147196461,3226,4,13,40460
1356814105,5808,995.9299926757812000,48.7401390075683600,676.2233886718750000,4.0923938751220700,53.9224700927734400,52,100,88,78,81,15154,2147757202,2147422418,2148012187,2147875410,2147645156,2147057883,2148256576,2147196809,3371,4,13,41832
1356817705,5811,996.1099853515625000,49.0967407226562500,678.1605224609375000,4.0282478332519530,53.9006690979003900,53,101,87,79,81,15152,2147756635,2147423744,2148011346,2147874569,2147643876,2147054546,2148255250,2147196315,3445,4,13,57344
1356821305,5810,1004.9600219726562000,50.1122398376464840,679.3372802734375000,3.9892539978027344,53.7735214233398440,52,99,87,79,81,15154,2147755748,2147423030,2148012955,2147876946,2147642349,2147056009,2148261659,2147194706,242,4,13,48653
1356824905,5808,1005.0499877929688000,48.9143600463867200,679.2551269531250000,3.9919800758361816,53.9361610412597660,51,97,85,80,81,15155,2147756224,2147423433,2148009600,2147874450,2147648009,2147052946,2148261970,2147193472,241,4,13,35104
1356828505,5806,1003.7899780273438000,49.2737808227539060,679.1630249023438000,3.9950311183929443,53.8839912414550800,51,96,87,79,81,15155,2147754166,2147423085,2148009691,2147874560,2147646966,2147053933,2148266349,2147195090,315,4,13,33305
1356832105,5811,1011.9600219726562000,49.5325584411621100,678.4968872070312000,4.0171008110046390,53.8410186767578100,52,98,88,79,80,15154,2147755821,2147423323,2148009709,2147874605,2147647506,2147052589,2148264722,2147199460,3451,4,13,6893
1356835705,5810,1008.6500244140625000,49.0380706787109400,678.4285888671875000,4.0193610191345215,53.9066200256347660,52,98,88,79,82,15150,2147755190,2147423689,2148009060,2147874148,2147645531,2147053705,2148262619,2147200969,201,4,13,33886
1356839305,5809,1008.5100097656250000,49.0562286376953100,679.1610717773438000,3.9950919151306152,53.9124412536621100,52,98,89,77,81,15151,2147754093,2147423296,2148009892,2147873408,2147646299,2147058944,2148265097,2147197467,337,4,13,22036
1356842905,5809,1004.1199951171875000,49.4776496887207000,679.0277709960938000,3.9995100498199463,53.8581314086914060,53,99,86,79,80,15152,2147756781,2147421238,2148010258,2147875072,2147644854,2147058468,2148267026,2147194953,120,4,13,26046
1356846505,5807,1017.0200195312500000,49.6872215270996100,678.4583129882812000,4.0183811187744140,53.8224182128906250,52,102,90,79,81,15149,2147756105,2147425325,2148010249,2147873088,2147644699,2147051364,2148261750,2147194697,189,4,13,57651
1356850105,5806,1010.9400024414062000,49.3938407897949200,678.2396240234375000,4.0256252288818360,53.8575286865234400,53,103,88,78,80,15150,2147760301,2147423808,2148012553,2147877860,2147644772,2147060928,2148253760,2147198939,158,4,13,30568
1356853705,5809,1009.0399780273438000,49.0595893859863300,678.4537963867188000,4.0185298919677730,53.9062004089355500,53,99,86,78,81,15148,2147754084,2147425828,2148010587,2147874806,2147645897,2147057444,2148263396,2147197613,142,4,13,4997
1356857305,5806,1009.8800048828125000,49.1543388366699200,679.3334960937500000,3.9893798828125000,53.9031105041503900,52,99,88,79,80,15147,2147755730,2147421165,2148011949,2147876918,2147642870,2147055003,2148265755,2147197458,631,4,13,62578
1356860905,5809,1008.8400268554688000,49.2960205078125000,679.2827148437500000,3.9910659790039062,53.8823585510253900,52,98,89,78,80,15148,2147757220,2147423131,2148009874,2147875437,2147648502,2147059565,2148259565,2147194624,315,4,13,7549
1356864505,5810,999.0000000000000000,49.2882118225097660,678.7067260742188000,4.0101509094238280,53.8772010803222660,52,100,87,80,81,15146,2147758509,2147422820,2148010441,2147873325,2147643757,2147056429,2148264996,2147193856,417,4,13,3808
1356868105,5811,1004.0599975585938000,49.6680297851562500,679.7990112304688000,3.9739511013031006,53.8368110656738300,54,100,87,78,82,15144,2147755538,2147423533,2148011163,2147876425,2147642176,2147053238,2148266313,2147194578,674,4,13,51107
1356871705,5806,1015.0200195312500000,49.9809799194335940,679.2944946289062000,3.9906709194183350,53.7870788574218750,52,98,86,77,82,15140,2147755209,2147419337,2148009810,2147872923,2147643446,2147051876,2148267145,2147194121,2840,4,13,59988
1356875305,5810,1017.3499755859375000,49.5070495605468750,678.4479980468750000,4.0187211036682130,53.8410911560058600,52,97,83,79,81,15146,2147757568,2147420397,2148008676,2147874258,2147645229,2147052992,2148264694,2147197138,3449,4,13,52549
1356878905,5807,1017.7100219726562000,48.7544593811035160,678.1411743164062000,4.0288829803466800,53.9451789855957000,52,101,89,80,81,15142,2147755949,2147422390,2148008246,2147876361,2147644772,2147059968,2148263350,2147192987,267,4,13,28068
1356882505,5806,1022.9400024414062000,48.5038795471191400,675.7501831054688000,4.1080570220947270,53.9505310058593750,52,96,88,79,80,15141,2147756178,2147424603,2148009261,2147874523,2147647296,2147054189,2148262747,2147195803,3571,4,13,39499
1356886105,5810,1016.5700073242188000,47.8158683776855500,676.6566772460938000,4.0780510902404785,54.0543098449707000,52,101,87,78,81,15140,2147756041,2147426139,2148011629,2147872868,2147645915,2147056758,2148264914,2147194532,207,4,13,34126
1356889705,5806,1016.0900268554688000,48.2918395996093750,677.2575073242188000,4.0581550598144530,53.9997596740722660,53,99,85,78,81,15141,2147753874,2147423890,2148012123,2147874029,2147643227,2147055588,2148262400,2147197065,3489,4,13,33447
1356893305,5810,1013.4000244140625000,48.6043701171875000,678.6652221679688000,4.0115261077880860,53.9752197265625000,52,98,86,79,82,15144,2147757001,2147421952,2148008027,2147873024,2147647926,2147054052,2148267364,2147194313,3558,4,13,35559
1356896905,5810,1010.2700195312500000,49.4395217895507800,679.4326782226562000,3.9860939979553223,53.8681182861328100,52,101,84,79,82,15143,2147756470,2147423524,2148007195,2147874944,2147645915,2147051858,2148262418,2147195254,169,4,13,46658
1356897656,5806,1016.7500000000000000,49.5737495422363300,679.2056884765625000,3.9936161041259766,53.8461112976074200,52,99,88,79,82,15150,2147755849,2147425179,2148008082,2147871579,2147646436,2147052406,2148263104,2147194806,3392,4,13,7262
